Weather in Kilingi-Nõmme

Estonia     58°09′03″N   24°57′54″E
temp.,
°C
wind,
m/s
gust,
m/s
humid.,
%
clouds,
%
prec.,
mm/h
press.,
hPa
HPBL,
m
11 april, sun
sun1100:000ssw29790 0.0 1019207
03:00−1ssw27815 0.0 1021161
06:00−1s2679100 0.0 1022120
09:00+4ssw245114 0.0 1024337
12:00+8se2330100 0.0 10241187
15:00+10se3530100 0.0 10241553
18:00+10se475699 0.0 10221364
21:00+6se41085100 0.5 1022496
12 april, mon
mon1200:00+7se41592100 0.4 1021505
03:00+7sse4149176 0.6 1021381
06:00+7sse51584100 0.0 1020400
09:00+9sse51470100 0.0 1020594
12:00+14s61251100 0.0 1019931
15:00+15s51143100 0.0 10191454
18:00+13s51047100 0.0 10181405
21:00+11s3957100 0.0 1018339
13 april, tue
tue1300:00+9ssw3874100 0.1 1017653
03:00+7wsw259098 0.1 1017289
06:00+5w2492100 0.0 1018264
09:00+5wnw3676100 0.1 1019444
12:00+4w2580100 0.1 1020456
15:00+7w4658100 0.1 10211029
18:00+5wsw466291 0.0 1022576
21:00+2wsw278493 0.0 1023210
14 april, wed
wed1400:00+1nw229398 0.0 102441
03:000wnw229285 0.0 102441
06:000nnw248867 0.0 102583
09:00+4n36675 0.0 1026556
12:00+7n454544 0.0 10261273
15:00+9nne453690 0.0 10261630
18:00+8nne454050 0.0 10261460
21:00+3nne386298 0.0 1027248
15 april, thu
thu1500:00+1nne397699 0.0 1028246
03:00−1nne2882100 0.0 1028201
06:00−1nne3117662 0.0 1028266
09:00+4nne49535 0.0 1029615
12:00+9nne57391 0.0 10291184
15:00+11nne57415 0.0 10281537
18:00+11nne57472 0.0 10281372
21:00+5nne27720 0.0 1031149